Date_and_time,latitude,longitude,wind_speed,RelWindDirFrom,WindDirFrom,air_pressure,air_temperature,relative_humidity,Temp,platform_speed_wrt_ground,air_pressure_at_mean_sea_level,platform_orientation
2019-06-26 23:50,50.6304516666667,-96.9807583333333,11.5,13.6,23,985.98,22.5,62,21.19,0.0,1011.52,270.0
2019-06-27 00:00,50.63045,-96.980775,11.9,13.3,28,986.12,21.8,73,20.92,0.0,1011.69,360.0
2019-06-27 00:10,50.6304483333333,-96.9807766666667,10.2,11.3,36,986.29,21.5,80,20.69,0.0,1011.86,360.0
2019-06-27 00:20,50.6304666666667,-96.9807683333333,9.9,11.2,39,986.38,21.6,80,20.73,0.0,1011.97,360.0
2019-06-27 00:30,50.6304583333333,-96.9807716666667,10.8,12.2,40,986.44,21.6,81,20.57,0.0,1012.03,360.0
2019-06-27 00:40,50.6304783333333,-96.9807533333333,10.3,12.1,45,986.51,21.6,81,20.43,0.0,1012.09,360.0
2019-06-27 00:50,50.6304566666667,-96.9807683333333,8.8,10.1,48,986.52,21.6,79,20.33,0.0,1012.11,360.0
2019-06-27 01:00,50.6304766666667,-96.9807666666667,7.8,9.7,48,986.55,21.6,79,20.25,0.0,1012.13,360.0
2019-06-27 01:10,50.6304583333333,-96.9807666666667,6.4,7.5,54,986.64,21.7,80,20.16,0.0,1012.21,360.0
2019-06-27 01:20,50.630455,-96.9807666666667,7.1,10.7,38,986.78,21.6,81,20.26,0.0,1012.36,360.0
2019-06-27 01:30,50.630455,-96.9807683333333,7.8,11.1,38,986.87,21.1,80,20.38,0.0,1012.54,360.0
2019-06-27 01:40,50.630455,-96.9807666666667,8.2,9.5,38,986.85,20.9,81,20.47,0.0,1012.62,360.0
2019-06-27 01:50,50.6304533333333,-96.9807666666667,7.1,8.9,38,986.94,21.1,80,20.37,0.0,1012.73,360.0
2019-06-27 02:00,50.6304516666667,-96.980765,6.8,8.1,29,987.08,21.1,80,20.79,0.0,1012.88,14.5
2019-06-27 02:10,50.630455,-96.9807566666667,8.4,10.7,19,987.24,21.1,78,21.08,0.0,1013.05,14.5
2019-06-27 02:20,50.6304483333333,-96.980755,9.8,11.5,24,987.26,21.0,75,20.79,0.0,1013.07,14.5
2019-06-27 02:30,50.6304516666667,-96.9807666666667,9.1,10.6,28,987.35,20.9,74,20.63,0.0,1013.17,14.5
2019-06-27 02:40,50.630445,-96.9807616666667,9.0,10.8,31,987.50,20.8,76,20.70,0.0,1013.33,14.5
2019-06-27 02:50,50.63045,-96.9807783333333,7.7,9.0,35,987.70,20.7,79,20.69,0.0,1013.53,14.5
2019-06-27 03:00,50.63045,-96.980775,6.7,8.1,36,987.85,20.6,80,20.66,0.0,1013.69,0.0
2019-06-27 03:10,50.6304483333333,-96.9807716666667,7.1,8.7,35,987.91,20.5,79,20.57,0.0,1013.76,0.0
2019-06-27 03:20,50.63045,-96.98077,7.2,8.3,32,988.07,20.5,78,20.51,0.0,1013.94,0.0
2019-06-27 03:30,50.6304483333333,-96.98077,6.5,7.8,32,988.19,20.5,80,20.44,0.0,1014.08,0.0
2019-06-27 03:40,50.6304483333333,-96.9807683333333,7.3,8.4,24,988.27,20.5,79,20.38,0.0,1014.16,0.0
2019-06-27 03:50,50.63045,-96.9807683333333,7.5,8.6,20,988.34,20.5,79,20.34,0.0,1014.22,0.0
2019-06-27 04:00,50.63045,-96.9807666666667,6.2,7.6,23,988.46,20.4,80,20.33,0.0,1014.35,170.2
2019-06-27 04:10,50.63045,-96.9807666666667,5.6,6.5,22,988.52,20.4,80,20.32,0.0,1014.42,170.2
2019-06-27 04:20,50.63045,-96.9807683333333,5.4,6.5,22,988.51,20.4,80,20.32,0.0,1014.41,170.2
2019-06-27 04:30,50.63045,-96.9807683333333,5.4,6.1,25,988.54,20.3,81,20.34,0.0,1014.45,170.2
2019-06-27 04:40,50.6304516666667,-96.9807683333333,5.1,6.0,32,988.53,20.3,83,20.32,0.0,1014.44,170.2
2019-06-27 04:50,50.6304516666667,-96.9807666666667,5.2,6.2,35,988.61,20.2,83,20.28,0.0,1014.54,170.2
2019-06-27 05:00,50.6304316666667,-96.9807666666667,5.0,5.9,44,988.68,20.2,85,20.31,0.0,1014.61,360.0
2019-06-27 05:10,50.6304483333333,-96.9807666666667,5.3,6.3,39,988.71,20.1,86,20.34,0.0,1014.65,360.0
2019-06-27 05:20,50.6304483333333,-96.98077,6.1,7.2,33,988.70,20.1,85,20.32,0.0,1014.64,360.0
2019-06-27 05:30,50.6304466666667,-96.9807716666667,5.8,6.8,34,988.76,20.1,85,20.31,0.0,1014.70,360.0
2019-06-27 05:40,50.6304466666667,-96.9807683333333,5.3,6.4,40,988.84,20.1,84,20.32,0.0,1014.78,360.0
2019-06-27 05:50,50.6304466666667,-96.9807666666667,5.2,6.5,46,988.97,20.1,84,20.36,0.0,1014.91,360.0
2019-06-27 06:00,50.63043,-96.9807583333333,4.0,5.2,52,989.18,20.1,84,20.39,0.0,1015.14,360.0
2019-06-27 06:10,50.6304583333333,-96.9807633333333,3.9,4.6,56,989.28,20.0,85,20.39,0.0,1015.24,360.0
2019-06-27 06:20,50.6304666666667,-96.980775,3.3,4.2,55,989.37,20.0,84,20.39,0.0,1015.34,360.0
2019-06-27 06:30,50.6304483333333,-96.980765,1.3,3.3,14,989.42,19.6,84,20.40,0.0,1015.41,360.0
2019-06-27 06:40,50.630445,-96.980765,1.7,2.7,343,989.41,18.6,87,20.42,0.0,1015.45,360.0
2019-06-27 06:50,50.6304416666667,-96.980765,2.0,2.9,330,989.39,17.7,91,20.45,0.0,1015.47,360.0
2019-06-27 07:00,50.6304433333333,-96.9807666666667,2.6,3.2,325,989.51,17.3,94,20.44,0.0,1015.61,360.0
2019-06-27 07:10,50.6304416666667,-96.9807666666667,2.7,3.5,334,989.53,17.4,94,20.46,0.0,1015.63,360.0
2019-06-27 07:20,50.6304433333333,-96.9807683333333,2.3,3.5,327,989.58,17.5,92,20.51,0.0,1015.67,360.0
2019-06-27 07:30,50.6304416666667,-96.9807666666667,1.3,1.9,292,989.62,16.9,92,20.52,0.0,1015.75,360.0
2019-06-27 07:40,50.6304433333333,-96.9807666666667,1.7,2.3,293,989.67,16.4,94,20.54,0.0,1015.82,360.0
2019-06-27 07:50,50.6304433333333,-96.9807666666667,1.7,2.8,258,989.81,16.0,98,20.56,0.0,1015.98,360.0
2019-06-27 08:00,50.6304433333333,-96.980765,1.9,2.9,279,989.76,15.8,98,20.56,0.0,1015.93,38.0
2019-06-27 08:10,50.6304433333333,-96.980765,2.2,3.2,273,989.83,15.5,99,20.59,0.0,1016.02,38.0
2019-06-27 08:20,50.6304433333333,-96.9807666666667,1.1,2.1,246,990.07,15.5,100,20.60,0.0,1016.29,38.0
2019-06-27 08:30,50.6304433333333,-96.9807666666667,1.5,2.2,280,989.97,15.6,99,20.60,0.0,1016.22,38.0
2019-06-27 08:40,50.6304433333333,-96.9807683333333,1.7,2.5,272,989.95,15.5,99,20.60,0.0,1016.25,38.0
2019-06-27 08:50,50.6304433333333,-96.9807683333333,2.3,3.5,265,990.04,15.1,99,20.60,0.0,1016.38,38.0
2019-06-27 09:00,50.6304433333333,-96.9807683333333,1.9,2.8,271,990.05,14.9,100,20.59,0.0,1016.40,336.5
2019-06-27 09:10,50.63045,-96.9807716666667,2.1,2.9,304,989.85,14.8,100,20.59,0.0,1016.20,336.5
2019-06-27 09:20,50.6304516666667,-96.9807666666667,3.0,4.0,325,989.72,15.3,100,20.58,0.0,1016.06,336.5
2019-06-27 09:30,50.63045,-96.9807683333333,3.1,3.8,337,989.65,15.9,100,20.58,0.0,1015.99,336.5
2019-06-27 09:40,50.6304516666667,-96.9807716666667,1.2,3.0,317,990.17,15.9,99,20.57,0.0,1016.54,336.5
2019-06-27 09:50,50.63045,-96.98077,0.8,1.7,311,990.39,15.6,99,20.56,0.0,1016.79,336.5
2019-06-27 10:00,50.6304516666667,-96.9807683333333,0.3,1.3,265,990.59,15.5,100,20.56,0.0,1017.02,360.0
2019-06-27 10:10,50.6304466666667,-96.9807616666667,0.8,1.8,274,990.77,15.2,100,20.56,0.0,1017.21,360.0
2019-06-27 10:20,50.6304466666667,-96.9807616666667,1.4,2.0,276,990.94,14.8,99,20.55,0.0,1017.40,360.0
2019-06-27 10:30,50.63044,-96.980755,0.7,1.5,253,991.07,14.8,100,20.55,0.0,1017.54,360.0
2019-06-27 10:40,50.63044,-96.9807566666667,1.3,1.9,294,991.17,15.1,99,20.53,0.0,1017.64,360.0
2019-06-27 10:50,50.63044,-96.98076,1.5,2.2,292,991.20,15.1,99,20.51,0.0,1017.69,360.0
2019-06-27 11:00,50.6304616666667,-96.980765,1.2,1.7,294,991.26,15.0,99,20.51,0.0,1017.75,360.0
2019-06-27 11:10,50.63044,-96.9807533333333,1.2,1.9,278,991.37,15.2,98,20.50,0.0,1017.83,360.0
2019-06-27 11:20,50.6304416666667,-96.9807833333333,0.9,1.8,288,991.23,15.5,96,20.50,0.0,1017.66,360.0
2019-06-27 11:30,50.6304516666667,-96.9807666666667,1.4,3.0,342,991.19,16.3,94,20.50,0.0,1017.58,360.0
2019-06-27 11:40,50.63045,-96.9807683333333,2.0,3.2,354,991.28,17.0,92,20.50,0.0,1017.64,360.0
2019-06-27 11:50,50.6304516666667,-96.9807683333333,1.3,2.2,8,991.32,17.7,90,20.48,0.0,1017.66,360.0
2019-06-27 12:00,50.6304516666667,-96.98077,2.0,6.2,23,991.38,18.3,91,20.48,0.0,1017.71,360.0
2019-06-27 12:10,50.6304483333333,-96.98077,6.8,8.7,68,991.26,19.4,82,20.48,0.0,1017.56,360.0
2019-06-27 12:20,50.6304466666667,-96.9807666666667,7.2,8.9,65,991.26,19.8,76,20.47,0.0,1017.54,360.0
2019-06-27 12:30,50.6304466666667,-96.98077,7.0,8.4,73,991.39,19.9,68,20.47,0.0,1017.66,360.0
2019-06-27 12:40,50.63045,-96.9807783333333,6.7,8.7,79,991.42,20.0,65,20.47,0.0,1017.68,360.0
2019-06-27 12:50,50.630465,-96.9807716666667,6.2,8.4,81,991.31,20.0,64,20.47,0.0,1017.57,360.0
2019-06-27 13:00,50.6304466666667,-96.9807683333333,6.7,8.0,75,991.28,20.1,65,20.47,0.0,1017.52,360.0
2019-06-27 13:10,50.6304516666667,-96.98077,7.1,8.5,74,991.18,19.8,67,20.47,0.0,1017.42,360.0
2019-06-27 13:20,50.63045,-96.98077,7.3,8.5,73,991.21,19.8,65,20.47,0.0,1017.41,360.0
2019-06-27 13:30,50.63045,-96.9807683333333,7.4,8.5,64,991.18,19.6,67,20.44,0.0,1017.36,360.0
2019-06-27 13:40,50.63045,-96.98077,8.8,10.1,61,991.14,19.4,65,20.42,0.0,1017.30,360.0
2019-06-27 13:50,50.63045,-96.980725,8.1,9.4,58,991.18,19.3,68,20.41,0.0,1017.32,360.0
2019-06-27 14:00,50.6304433333333,-96.980765,8.2,9.5,62,991.22,19.3,69,20.41,0.0,1017.31,360.0
2019-06-27 14:10,50.630445,-96.980765,8.0,9.3,64,991.16,19.3,67,20.41,0.0,1017.23,360.0
2019-06-27 14:20,50.6304466666667,-96.9807666666667,8.2,9.4,66,991.14,19.5,64,20.41,0.0,1017.20,360.0
2019-06-27 14:30,50.630445,-96.9807716666667,7.6,9.4,68,991.14,19.6,64,20.40,0.0,1017.18,360.0
2019-06-27 14:40,50.6304433333333,-96.9807733333333,7.5,9.0,63,991.01,19.6,65,20.39,0.0,1017.05,360.0
2019-06-27 14:50,50.6304433333333,-96.9807733333333,6.7,8.0,62,990.81,19.4,66,20.37,0.0,1016.85,360.0
2019-06-27 15:00,50.6304433333333,-96.9807716666667,6.2,7.4,56,990.66,19.4,64,20.37,0.0,1016.70,360.0
2019-06-27 15:10,50.6304483333333,-96.9807683333333,5.2,6.3,46,990.68,19.5,63,20.37,0.0,1016.72,360.0
2019-06-27 15:20,50.6304466666667,-96.980765,4.0,5.0,45,990.94,19.7,65,20.37,0.0,1016.99,360.0
2019-06-27 15:30,50.630445,-96.980765,3.8,5.1,47,991.05,19.8,64,20.37,0.0,1017.12,360.0
2019-06-27 15:40,50.630445,-96.9807633333333,4.3,5.5,47,991.15,19.9,65,20.37,0.0,1017.22,360.0
2019-06-27 15:50,50.6304466666667,-96.980765,4.6,5.7,39,991.14,19.9,65,20.39,0.0,1017.20,360.0
2019-06-27 16:00,50.6304466666667,-96.980765,3.4,4.5,50,991.26,20.1,64,20.41,0.0,1017.32,0.0
2019-06-27 16:10,50.6304466666667,-96.980765,5.2,7.1,42,991.40,20.2,62,20.44,0.0,1017.45,0.0
2019-06-27 16:20,50.6304233333333,-96.9807533333333,5.9,7.2,45,991.54,20.3,62,20.46,0.0,1017.57,0.0
2019-06-27 16:30,50.6304583333333,-96.9807766666667,5.1,6.8,45,991.57,20.1,66,20.49,0.0,1017.63,0.0
2019-06-27 16:40,50.6304433333333,-96.980775,6.1,7.2,35,991.40,20.2,67,20.53,0.0,1017.45,0.0
2019-06-27 16:50,50.630445,-96.9807683333333,5.8,6.9,42,991.60,20.1,66,20.55,0.0,1017.66,0.0
2019-06-27 17:00,50.6304433333333,-96.9807666666667,6.0,7.0,38,991.61,20.2,66,20.56,0.0,1017.66,0.0
2019-06-27 17:10,50.6304416666667,-96.9807666666667,5.9,7.2,40,991.72,20.3,64,20.56,0.0,1017.76,0.0
2019-06-27 17:20,50.6304433333333,-96.98077,4.7,5.6,39,991.94,20.4,65,20.57,0.0,1017.98,0.0
2019-06-27 17:30,50.630445,-96.98077,4.9,6.1,32,992.09,20.4,65,20.58,0.0,1018.12,0.0
2019-06-27 17:40,50.630445,-96.98077,4.9,6.1,37,992.03,20.5,64,20.61,0.0,1018.06,0.0
2019-06-27 17:50,50.6304233333333,-96.980765,5.4,6.8,29,991.97,20.5,66,20.61,0.0,1017.99,0.0
2019-06-27 18:00,50.6304716666667,-96.9808166666667,5.8,6.7,32,991.96,20.6,66,20.60,0.0,1017.97,322.3
2019-06-27 18:10,50.63045,-96.9807983333333,5.4,6.2,34,992.08,20.7,65,20.62,0.0,1018.08,322.3
2019-06-27 18:20,50.6304383333333,-96.9807583333333,5.2,6.2,34,992.12,20.9,66,20.63,0.0,1018.13,322.3
2019-06-27 18:30,50.6304416666667,-96.9807633333333,5.7,6.7,36,992.10,21.0,65,20.64,0.0,1018.10,322.3
2019-06-27 18:40,50.6304433333333,-96.9807666666667,4.8,6.0,42,992.22,21.2,65,20.65,0.0,1018.22,322.3
2019-06-27 18:50,50.630445,-96.9807666666667,5.0,6.0,38,992.37,21.3,63,20.65,0.0,1018.36,322.3
2019-06-27 19:00,50.6304466666667,-96.9807666666667,4.9,5.7,42,992.42,21.4,63,20.65,0.0,1018.41,0.0
2019-06-27 19:10,50.630445,-96.98077,4.2,5.0,46,992.41,21.5,62,20.67,0.0,1018.39,0.0
2019-06-27 19:20,50.630445,-96.98077,5.8,6.9,29,992.30,21.4,63,20.71,0.0,1018.27,0.0
2019-06-27 19:30,50.6304433333333,-96.9807916666667,6.2,7.2,32,992.16,21.5,62,20.77,0.0,1018.12,0.0
2019-06-27 19:40,50.6304333333333,-96.980755,7.5,8.9,32,991.94,21.5,62,20.81,0.0,1017.90,0.0
2019-06-27 19:50,50.630435,-96.98076,8.1,9.1,30,991.86,21.6,60,20.80,0.0,1017.81,0.0
2019-06-27 20:00,50.6304416666667,-96.9807666666667,7.2,8.0,39,991.85,21.9,58,20.84,0.0,1017.77,0.0
2019-06-27 20:10,50.6304333333333,-96.980755,7.4,8.6,39,991.82,22.0,58,20.95,0.0,1017.74,0.0
2019-06-27 20:20,50.6304616666667,-96.9807616666667,9.0,10.3,28,991.76,22.0,58,20.92,0.0,1017.67,0.0
2019-06-27 20:30,50.6304666666667,-96.9807716666667,10.3,11.7,27,991.72,22.0,59,20.86,0.0,1017.62,0.0
2019-06-27 20:40,50.6304483333333,-96.980775,9.9,11.7,22,991.73,22.0,59,20.85,0.0,1017.62,0.0
2019-06-27 20:50,50.6304466666667,-96.9807783333333,8.1,9.3,29,991.78,22.1,59,20.95,0.0,1017.66,0.0
2019-06-27 21:00,50.6304683333333,-96.9807883333333,7.3,8.6,43,991.89,22.2,60,20.94,0.0,1017.77,107.7
2019-06-27 21:10,50.6304433333333,-96.9807716666667,7.8,9.0,47,991.92,22.4,61,20.95,0.0,1017.80,107.7
2019-06-27 21:20,50.6304383333333,-96.9807683333333,7.2,8.3,52,991.92,22.4,59,20.93,0.0,1017.80,107.7
2019-06-27 21:30,50.6304383333333,-96.9807716666667,7.4,8.5,57,991.89,22.5,60,20.86,0.0,1017.75,107.7
2019-06-27 21:40,50.630455,-96.9807816666667,6.8,7.8,55,991.82,22.7,59,20.96,0.0,1017.67,107.7
2019-06-27 21:50,50.6304283333333,-96.9808,6.2,7.3,53,991.75,22.8,57,20.86,0.0,1017.59,107.7
2019-06-27 22:00,50.6304433333333,-96.98078,7.2,8.8,45,991.55,22.8,55,21.16,0.0,1017.37,246.4
2019-06-27 22:10,50.6304483333333,-96.98074,7.0,8.5,54,991.48,22.9,58,21.44,0.0,1017.30,246.4
2019-06-27 22:20,50.630445,-96.9807566666667,7.0,8.5,60,991.51,22.9,57,21.39,0.0,1017.33,246.4
2019-06-27 22:30,50.6304466666667,-96.9807483333333,7.5,9.5,59,991.49,23.1,55,21.31,0.0,1017.30,246.4
2019-06-27 22:40,50.63045,-96.9807733333333,9.5,11.1,52,991.30,22.9,56,21.32,0.0,1017.11,246.4
2019-06-27 22:50,50.63044,-96.98076,9.4,11.1,52,991.37,22.9,56,21.56,0.0,1017.17,246.4
2019-06-27 23:00,50.6304466666667,-96.9807766666667,9.4,10.4,59,991.44,22.9,57,21.43,0.0,1017.24,347.4
2019-06-27 23:10,50.6304133333333,-96.9807716666667,7.9,9.5,67,991.38,23.0,60,21.40,0.0,1017.17,347.4
2019-06-27 23:20,50.6304383333333,-96.98076,6.5,7.5,71,991.40,23.0,62,21.44,0.0,1017.19,347.4
2019-06-27 23:30,50.63046,-96.9807466666667,5.6,6.5,72,991.46,23.5,61,21.37,0.0,1017.22,347.4
